This demonstration page uses our WeatherBlox Daily Observations layout. Learn more.

41.55636, -103.73856

Hourly Observations for January 29, 2018

Temp ( °F °C ) Dew Point ( °F °C ) Humidity (%) Winds ( mph kmh ) Pressure ( in mb ) Visibility ( mi km ) Precip ( " mm )
12:53 am 00:53 Cloudy 28 -2.2 26 -3.3 92 92 ESE 6 9 30.48 1032 10 16.09344 0 0
1:53 am 01:53 Cloudy 28 -2.2 26 -3.3 92 92 E 6 9 30.48 1032 10 16.09344 0 0
2:53 am 02:53 Cloudy 28 -2.2 26 -3.3 92 92 ESE 7 11 30.48 1032 10 16.09344 0 0
3:53 am 03:53 Cloudy 28 -2.2 25 -3.9 88 88 ESE 5 7 30.45 1031 10 16.09344 0 0
4:53 am 04:53 Cloudy 28 -2.2 25 -3.9 88 88 undefined N/A 30.45 1031 9 14.484096 0 0
5:53 am 05:53 Cloudy 28 -2.2 25 -3.9 88 88 NE 3 6 30.42 1030 9 14.484096 0 0
6:53 am 06:53 Cloudy 28 -2.2 26 -3.3 92 92 Calm 30.42 1030 10 16.09344 0 0
7:53 am 07:53 Mostly Sunny 27 -2.8 25 -3.9 92 92 Calm 30.45 1031 7 11.265408 0 0
8:53 am 08:53 Sunny 32 0 26 -3.3 79 79 Calm 30.42 1030 10 16.09344 0 0
9:53 am 09:53 Mostly Sunny 34 1.1 27 -2.8 76 76 E 3 6 30.42 1030 10 16.09344 0 0
10:53 am 10:53 Sunny 40 4.4 29 -1.7 65 65 N 3 6 30.39 1029 10 16.09344 0 0
11:53 am 11:53 Sunny 44 6.7 31 -0.6 60 60 WSW 3 6 30.33 1027 10 16.09344 0 0
12:53 pm 12:53 Sunny 44 6.7 33 0.6 65 65 SE 3 6 30.3 1026 10 16.09344 0 0
1:53 pm 13:53 Sunny 47 8.3 35 1.7 63 63 ESE 5 7 30.27 1025 10 16.09344 0 0
2:53 pm 14:53 Sunny 44 6.7 35 1.7 71 71 ESE 7 11 30.27 1025 10 16.09344 0 0
3:53 pm 15:53 Sunny 44 6.7 35 1.7 71 71 E 5 7 30.27 1025 10 16.09344 0 0
4:53 pm 16:53 Sunny 39 3.9 33 0.6 79 79 E 5 7 30.27 1025 10 16.09344 0 0
5:53 pm 17:53 Clear 42 5.6 32 0 68 68 W 3 6 30.27 1025 10 16.09344 0 0
6:53 pm 18:53 Clear 37 2.8 30 -1.1 76 76 Calm 30.27 1025 10 16.09344 0 0
7:53 pm 19:53 Clear 39 3.9 31 -0.6 73 73 NW 7 11 30.27 1025 10 16.09344 0 0
8:53 pm 20:53 Clear 36 2.2 29 -1.7 76 76 NNW 3 6 30.24 1024 10 16.09344 0 0
9:53 pm 21:53 Clear 39 3.9 29 -1.7 67 67 WNW 3 6 30.18 1022 10 16.09344 0 0
10:53 pm 22:53 Clear 37 2.8 29 -1.7 73 73 Calm 30.15 1021 10 16.09344 0 0
11:53 pm 23:53 Mostly Clear 36 2.2 29 -1.7 76 76 Calm 30.12 1020 10 16.09344 0 0

Powered by AerisWeather